Lossiemouth, United Kingdom

8:08 AM BST on September 20, 2017 (GMT +0100)
Lossiemouth Air Base

Weather History for EGQS - November, 2012

Change the Weather History Date:

Tuesday, November 27, 2012

  Actual Average Record
Temperature  
Mean Temperature 44 °F -  
Max Temperature 46 °F 42 °F 55 °F (2011)
Min Temperature 41 °F 33 °F 19 °F (2010)
Degree Days  
Heating Degree Days 22    
Moisture  
Dew Point 38 °F    
Average Humidity 78    
Maximum Humidity 87    
Minimum Humidity 66    
Precipitation  
Precipitation 0.01 in - - ()
Sea Level Pressure  
Sea Level Pressure 30.02 in    
Wind  
Wind Speed 17 mph ()    
Max Wind Speed 22 mph    
Max Gust Speed -    
Visibility 9.4 miles    
Events Rain    
Averages and records for this station are not official NWS values.
T = Trace of Precipitation, MM = Missing Value Source: Averaged Metar Reports

Daily Weather History Graph

Daily Weather History Graph

Search for Another Location

Airport or City:

Trip Planner

Search our weather history database for the weather conditions in past years. The results will help you decide how hot, cold, wet, or windy it might be!

Date:

Astronomy

Nov. 27, 2012 Rise Set
Actual Time 8:24 AM GMT 3:37 PM GMT
Civil Twilight 7:36 AM GMT 4:25 PM GMT
Nautical Twilight 6:46 AM GMT 5:15 PM GMT
Astronomical Twilight 5:59 AM GMT 6:02 PM GMT
Moon 3:04 PM GMT (11/27) 7:08 AM GMT (11/27)
Length of Visible Light 8h 48m
Length of Day
7h 12m
Waxing Gibbous, 99% of the Moon is Illuminated
Nov 27
Waxing Gibbous
Nov 28
Full
Dec 6
Last Quarter
Dec 13
New
Dec 20
First Quarter

Hourly Weather History & Observations

Time (GMT) Temp. Windchill Dew Point Humidity Pressure Visibility Wind Dir Wind Speed Gust Speed Precip Events Conditions
12:50 AM 42.8 °F 33.8 °F 37.4 °F 81% 29.89 in 6.2 mi North 21.9 mph - N/A   Mostly Cloudy
1:50 AM 42.8 °F 34.0 °F 37.4 °F 81% 29.92 in 6.2 mi North 20.7 mph - N/A   Mostly Cloudy
2:50 AM 43 °F - 37 °F 73% 29.93 in 19 mi North 20.7 mph - -   Partly Cloudy
2:50 AM 42.8 °F 34.0 °F 37.4 °F 81% 29.92 in 6.2 mi North 20.7 mph - N/A   Mostly Cloudy
3:50 AM 42.8 °F 34.0 °F 37.4 °F 81% 29.92 in 6.2 mi North 20.7 mph - N/A   Mostly Cloudy
4:50 AM 42.8 °F 34.0 °F 39.2 °F 87% 29.95 in 6.2 mi North 20.7 mph - N/A   Mostly Cloudy
5:50 AM 44 °F - 40 °F 79% 29.96 in 19 mi North 19.6 mph - -   Mostly Cloudy
5:50 AM 44.6 °F 36.6 °F 39.2 °F 81% 29.95 in 6.2 mi North 19.6 mph - N/A   Mostly Cloudy
6:50 AM 44.6 °F 36.9 °F 39.2 °F 81% 29.98 in 6.2 mi North 18.4 mph - N/A   Mostly Cloudy
7:50 AM 44.6 °F 36.9 °F 39.2 °F 81% 29.98 in 6.2 mi North 18.4 mph - N/A   Mostly Cloudy
8:50 AM 45 °F - 39 °F 74% 30.01 in 19 mi North 15.0 mph - -   Mostly Cloudy
8:50 AM 44.6 °F 37.8 °F 39.2 °F 81% 30.01 in 6.2 mi North 15.0 mph - N/A   Mostly Cloudy
9:50 AM 44.6 °F 37.2 °F 39.2 °F 81% 30.01 in 6.2 mi North 17.3 mph - N/A   Scattered Clouds
10:50 AM 44.6 °F 37.4 °F 39.2 °F 81% 30.01 in 6.2 mi North 16.1 mph - N/A   Scattered Clouds
11:50 AM 45 °F - 40 °F 75% 30.04 in 19 mi North 17.3 mph - -   Partly Cloudy
11:50 AM 44.6 °F 37.2 °F 39.2 °F 81% 30.04 in 6.2 mi North 17.3 mph - N/A   Scattered Clouds
12:04 PM 44.6 °F 37.2 °F 39.2 °F 81% 30.04 in 6.2 mi North 17.3 mph - N/A   Scattered Clouds
12:50 PM 44.6 °F 38.1 °F 37.4 °F 76% 30.04 in 6.2 mi North 13.8 mph - N/A   Scattered Clouds
2:50 PM 45 °F - 37 °F 66% 30.04 in 19 mi North 18.4 mph - -   Mostly Cloudy
2:50 PM 44.6 °F 36.9 °F 37.4 °F 76% 30.04 in 6.2 mi North 18.4 mph - N/A   Mostly Cloudy
3:50 PM 44.6 °F 36.6 °F 37.4 °F 76% 30.04 in 6.2 mi North 19.6 mph - N/A   Mostly Cloudy
4:50 PM 44.6 °F 36.6 °F 37.4 °F 76% 30.06 in 6.2 mi North 19.6 mph - N/A   Mostly Cloudy
5:50 PM 43 °F - 37 °F 72% 30.09 in 19 mi North 17.3 mph - -   Mostly Cloudy
5:50 PM 42.8 °F 34.8 °F 37.4 °F 81% 30.06 in 6.2 mi North 17.3 mph - N/A   Scattered Clouds
6:50 PM 42.8 °F 34.3 °F 37.4 °F 81% 30.09 in 6.2 mi North 19.6 mph - N/A   Mostly Cloudy
7:50 PM 42.8 °F 34.3 °F 35.6 °F 76% 30.09 in 6.2 mi North 19.6 mph - N/A   Mostly Cloudy
8:50 PM 42 °F - 35 °F 70% 30.12 in 19 mi North 19.6 mph - -   Mostly Cloudy
8:50 PM 42.8 °F 34.3 °F 35.6 °F 76% 30.09 in 6.2 mi North 19.6 mph - N/A   Mostly Cloudy
9:50 PM 42.8 °F 35.1 °F 35.6 °F 76% 30.09 in 6.2 mi North 16.1 mph - N/A Rain Light Rain Showers
10:50 PM 41.0 °F 32.8 °F 35.6 °F 81% 30.12 in 6.2 mi North 16.1 mph - N/A   Mostly Cloudy
11:50 PM 41 °F - 36 °F 76% 30.13 in 19 mi NNW 18.4 mph - -   Partly Cloudy
11:50 PM 41.0 °F 32.2 °F 35.6 °F 81% 30.12 in 6.2 mi NNW 18.4 mph - N/A   Mostly Cloudy